Renton, WA

8:21 PM PST on February 24, 2018 (GMT -0800)
Renton Municipal

Weather History for KRNT - October, 2013

Change the Weather History Date:

Thursday, October 31, 2013

  Actual Average Record
Temperature  
Mean Temperature 52 °F -  
Max Temperature 55 °F 53 °F 61 °F (2015)
Min Temperature 48 °F 39 °F 28 °F (2003)
Degree Days  
Heating Degree Days 14    
Growing Degree Days 2 (Base 50)    
Moisture  
Dew Point 48 °F    
Average Humidity 90    
Maximum Humidity 96    
Minimum Humidity 77    
Precipitation  
Precipitation 0.01 in - - ()
Sea Level Pressure  
Sea Level Pressure 30.18 in    
Wind  
Wind Speed 2 mph (SE)    
Max Wind Speed 6 mph    
Max Gust Speed -    
Visibility 6 miles    
Events Rain    
Averages and records for this station are not official NWS values.
T = Trace of Precipitation, MM = Missing Value Source: NWS Daily Summary

Daily Weather History Graph

Daily Weather History Graph

Search for Another Location

Airport or City:

Trip Planner

Search our weather history database for the weather conditions in past years. The results will help you decide how hot, cold, wet, or windy it might be!

Date:

Astronomy

Oct. 31, 2013 Rise Set
Actual Time 7:51 AM PDT 5:52 PM PDT
Civil Twilight 7:19 AM PDT 6:24 PM PDT
Nautical Twilight 6:43 AM PDT 7:00 PM PDT
Astronomical Twilight 6:07 AM PDT 7:36 PM PDT
Moon 4:35 AM PDT (10/31) 4:23 PM PDT (10/31)
Length of Visible Light 11h 05m
Length of Day
10h 00m
Waning Crescent, 9% of the Moon is Illuminated
Oct 31
Waning Crescent
Nov 3
New
Nov 9
First Quarter
Nov 17
Full
Nov 25
Last Quarter

Hourly Weather History & Observations

Time (PDT) Temp. Dew Point Humidity Pressure Visibility Wind Dir Wind Speed Gust Speed Precip Events Conditions
12:53 AM 50.0 °F 44.1 °F 80% 30.14 in 9.0 mi SE 4.6 mph - 0.00 in   Overcast
1:53 AM 50.0 °F 43.0 °F 77% 30.14 in 10.0 mi Calm Calm - 0.00 in   Overcast
2:53 AM 48.9 °F 45.0 °F 86% 30.14 in 8.0 mi SSE 3.5 mph - 0.01 in   Overcast
3:31 AM 50.0 °F 44.6 °F 82% 30.12 in 6.0 mi SE 3.5 mph - 0.00 in Rain Light Rain
3:45 AM 48.2 °F 44.6 °F 87% 30.11 in 7.0 mi SE 3.5 mph - 0.00 in Rain Light Rain
3:53 AM 48.9 °F 45.0 °F 86% 30.13 in 8.0 mi Calm Calm - 0.00 in Rain Light Rain
4:00 AM 48.2 °F 44.6 °F 87% 30.12 in 8.0 mi SE 3.5 mph - 0.00 in Rain Light Rain
4:53 AM 48.9 °F 46.0 °F 90% 30.13 in 7.0 mi Calm Calm - 0.00 in   Overcast
5:34 AM 48.2 °F 46.4 °F 93% 30.12 in 6.0 mi ESE 3.5 mph - N/A   Overcast
5:53 AM 48.9 °F 46.9 °F 93% 30.13 in 6.0 mi East 4.6 mph - N/A   Overcast
6:08 AM 48.2 °F 46.4 °F 93% 30.12 in 7.0 mi ESE 3.5 mph - N/A   Overcast
6:50 AM 48.2 °F 46.4 °F 93% 30.12 in 6.0 mi SE 3.5 mph - N/A   Overcast
6:53 AM 48.9 °F 46.9 °F 93% 30.13 in 6.0 mi Variable 3.5 mph - N/A   Overcast
7:53 AM 50.0 °F 46.9 °F 89% 30.14 in 7.0 mi East 3.5 mph - N/A   Overcast
8:53 AM 50.0 °F 48.0 °F 93% 30.17 in 5.0 mi Calm Calm - N/A   Overcast
9:53 AM 50.0 °F 48.0 °F 93% 30.18 in 5.0 mi Calm Calm - N/A   Overcast
10:53 AM 50.0 °F 48.9 °F 96% 30.19 in 3.0 mi Calm Calm - 0.00 in   Overcast
11:06 AM 51.8 °F 48.2 °F 88% 30.18 in 3.0 mi Calm Calm - N/A   Overcast
11:53 AM 52.0 °F 48.9 °F 89% 30.21 in 5.0 mi Calm Calm - N/A   Overcast
12:53 PM 53.1 °F 50.0 °F 89% 30.21 in 5.0 mi SSE 5.8 mph - N/A   Overcast
1:53 PM 53.1 °F 50.0 °F 89% 30.21 in 5.0 mi SSE 3.5 mph - N/A   Overcast
2:53 PM 54.0 °F 50.0 °F 86% 30.22 in 6.0 mi Calm Calm - N/A   Overcast
3:53 PM 55.0 °F 51.1 °F 86% 30.22 in 6.0 mi Calm Calm - N/A   Overcast
4:53 PM 55.0 °F 51.1 °F 86% 30.23 in 6.0 mi East 3.5 mph - N/A   Overcast
5:53 PM 54.0 °F 51.1 °F 90% 30.23 in 6.0 mi ESE 3.5 mph - N/A   Overcast
6:53 PM 54.0 °F 51.1 °F 90% 30.23 in 7.0 mi Calm Calm - N/A   Overcast
7:01 PM 53.6 °F 51.8 °F 94% 30.22 in 7.0 mi Calm Calm - N/A   Overcast
7:53 PM 53.1 °F 51.1 °F 93% 30.26 in 6.0 mi Calm Calm - N/A   Overcast
8:13 PM 53.6 °F 51.8 °F 94% 30.24 in 6.0 mi Calm Calm - N/A   Overcast
8:53 PM 53.1 °F 51.1 °F 93% 30.26 in 6.0 mi Calm Calm - N/A   Overcast
9:53 PM 53.1 °F 51.1 °F 93% 30.27 in 6.0 mi Calm Calm - N/A   Overcast
10:53 PM 53.1 °F 51.1 °F 93% 30.28 in 6.0 mi Calm Calm - N/A   Overcast
11:53 PM 53.1 °F 51.1 °F 93% 30.27 in 6.0 mi Calm Calm - N/A   Overcast